User: anonymous   Login
Location: Unspecified
(0.0000°N, 0.0000°E)
Time: 01:27:34
(UTC+01:00)
Language:

Cosmos 1782 Rocket - Orbit

View from above orbital plane
View from above orbital plane
View from above satellite
View from above satellite

Ground track
Ground track

The orbit data is extracted from the following two-line orbital elements,

1 16987U 86074B   14327.93277837  .00000586  00000-0  69698-4 0  5244
2 16987 082.5160 107.0658 0019884 104.6155 042.3278 14.82547529519721
Epoch (UTC): 23 November 2014 22:23:12
Eccentricity: 0.0019884
inclination: 82.5160°
perigee height: 607 km
apogee height: 635 km
right ascension of ascending node: 107.0658°
argument of perigee: 104.6155°
revolutions per day: 14.82547529
mean anomaly at epoch: 42.3278°
orbit number at epoch: 51972

The dashed part of the orbit path shows where the satellite is in the earth's shadow,  

DLR